Regional Weather Roundup
Issued by NWS

Home | Current Version | Previous Version | Graphics & Text | Print | Product List | Glossary On
Versions: 1 2 3 4 5 6 7 8 9 10 11 12 13 14 15 16 17 18 19 20 21 22 23 24 25 26 27 28 29 30 31 32 33 34 35 36 37 38 39 40 41 42 43 44 45 46 47 48 49 50
000
ASUS43 KMKX 060400
RWRWI

WISCONSIN REGIONAL WEATHER ROUNDUP
NATIONAL WEATHER SERVICE MILWAUKEE/SULLIVAN WI
1000 PM CST FRI FEB 05 2016

NOTE: "FAIR" INDICATES FEW OR NO CLOUDS BELOW 12,000 FEET WITH NO
SIGNIFICANT WEATHER AND/OR OBSTRUCTIONS TO VISIBILITY.

WIZ001-002-006>008-014>016-023>028-060500-
NORTHWEST WISCONSIN

CITY           SKY/WX    TMP DP  RH WIND       PRES   REMARKS
SUPERIOR ARPT  CLOUDY    27  17  66 W10       30.14S WCI  17
ASHLAND        CLOUDY    25  14  63 SW9       30.13S WCI  15
HAYWARD        CLOUDY    22  13  68 SW8       30.14S WCI  12
SIREN          CLOUDY    25  19  77 SW8       30.16R WCI  16
CUMBERLAND     CLOUDY    23  18  80 SW10      30.15S WCI  12
RICE LAKE      CLOUDY    23  17  77 S7        30.17F WCI  15
CHETEK         CLOUDY    23  17  78 S8        30.17F WCI  13
LADYSMITH      FLURRIES  21  15  75 S8        30.18F WCI  12
EAU CLAIRE     CLOUDY    23  14  68 S7        30.20F WCI  15
MENOMONIE      CLOUDY    25  17  73 S9        30.21S WCI  15
NEW RICHMOND   CLOUDY    23  19  82 S12       30.17F WCI  12
OSCEOLA        CLOUDY    25  20  82 S6        30.21R WCI  18
$$

WIZ003>005-009-010-017-018-060500-
NORTH CENTRAL WISCONSIN

CITY           SKY/WX    TMP DP  RH WIND       PRES   REMARKS
MANITOWISH WTR FLURRIES  21  11  64 SW9       30.09F WCI  11
ARBOR VITAE    CLOUDY    22  13  69 SW9G16    30.10F WCI  11
WOODRUFF       CLOUDY    22  13  69 SW9G16    30.10F WCI  11
RHINELANDER    CLOUDY    21  12  68 SW10      30.13F WCI  10
EAGLE RIVER    CLOUDY    22  10  62 SW9G16    30.10F WCI  11
LAND O LAKES   CLOUDY    23  10  57 SW8G17    30.09F WCI  13
PHILLIPS       FLURRIES  20  13  75 SW9       30.13F WCI   9
TOMAHAWK       CLOUDY    20  13  74 CALM      30.16F
MEDFORD        LGT SNOW  20  15  79 SW12      30.16F WCI   8
MERRILL        CLOUDY    21  14  73 SW5       30.19S WCI  14
$$

WIZ029-030-035-036-043>047-060500-
CENTRAL WISCONSIN

CITY           SKY/WX    TMP DP  RH WIND       PRES   REMARKS
WAUSAU         CLOUDY    22  13  68 SW8       30.18F WCI  12
MOSINEE        CLOUDY    19  16  86 S6        30.21F WCI  11
MARSHFIELD     CLOUDY    22  12  65 SW9       30.19F WCI  12
STEVENS POINT  CLOUDY    20  14  79 S5        30.22F WCI  13
WAUPACA        CLOUDY    24  18  79 CALM      30.24F
WAUTOMA        NOT AVBL
WISC RAPIDS    CLOUDY    22  15  75 SW5       30.24S WCI  16
CAMP DOUGLAS   NOT AVBL
$$

WIZ011>013-019>022-031-037>040-048>050-060500-
NORTHEAST WISCONSIN

CITY           SKY/WX    TMP DP  RH WIND       PRES   REMARKS
ANTIGO         CLOUDY    20  14  78 SW15      30.16F WCI   7
SHAWANO        CLOUDY    25  17  72 SW3       30.23F
OCONTO         CLOUDY    20  16  83 S3        30.23F
STURGEON BAY   CLOUDY    21  12  68 SW9       30.24F WCI  11
GREEN BAY      CLOUDY    23  16  74 SW7       30.25F WCI  15
MANITOWOC      NOT AVBL
APPLETON       CLOUDY    23  16  74 S9        30.22F WCI  13
CLINTONVILLE   CLOUDY    21  16  79 SW3       30.24S
OSHKOSH        CLOUDY    22  14  71 S10       30.24F WCI  11
$$

WIZ032>034-041-042-053>061-060500-
SOUTHWEST WISCONSIN

CITY           SKY/WX    TMP DP  RH WIND       PRES   REMARKS
LA CROSSE      CLOUDY    24  16  71 S3        30.27R
SPARTA         CLOUDY    24  16  69 SW5       30.27R WCI  18
VIROQUA        CLOUDY    22  17  81 SW8       30.23S WCI  13
BOSCOBEL       CLOUDY    25  19  78 SW5       30.29F WCI  19
PRAIRIE DU CHI MIX PCPN  26  18  73 CALM      30.29F
PLATTEVILLE    CLOUDY    26  22  87 S7        30.28F WCI  18
$$

WIZ056-057-062-063-064-067-068-060500-
SOUTH CENTRAL WISCONSIN

CITY           SKY/WX    TMP DP  RH WIND       PRES   REMARKS
REEDSBURG      CLOUDY    23  17  75 S8        30.25F WCI  14
BARABOO/DELLS  CLOUDY    24  17  73 SW9       30.25F WCI  14
LONE ROCK      NOT AVBL
MINERAL POINT  CLOUDY    27  21  80 S3        30.26F
MADISON        CLOUDY    27  18  69 SW5       30.28F WCI  22
MIDDLETON      CLOUDY    28  19  71 SW3       30.28F
WATERTOWN      CLOUDY    26  20  76 S3        30.28F
MONROE         CLOUDY    28  23  80 SW10      30.28S WCI  19
JANESVILLE     CLOUDY    30  23  74 S5        30.30S WCI  25
$$

WIZ051-052-058>065-066-070>072-060500-
SOUTHEAST WISCONSIN

CITY           SKY/WX    TMP DP  RH WIND       PRES   REMARKS
MILWAUKEE      CLOUDY    29  18  63 W6        30.30F WCI  23
WAUKESHA       CLOUDY    27  18  69 CALM      30.30F
MILWAUKEE/TIMM CLOUDY    28  18  64 W6        30.31S WCI  22
RACINE         CLOUDY    28  18  66 SW5       30.31F WCI  23
BURLINGTON     CLOUDY    24  19  81 CALM      30.30F
KENOSHA        CLOUDY    26  19  74 SW6       30.30F WCI  19
FOND DU LAC    MOCLDY    24  16  71 SW9       30.25F WCI  14
SHEBOYGAN        N/A     25  16  68 SW9       30.26F WCI  15
WEST BEND      CLOUDY    27  18  69 CALM      30.27F
JUNEAU         CLOUDY    24  18  75 S6        30.28F WCI  17
$$

LSZ147-162-060500-
LAKE SUPERIOR

STATION/POSITION TIME  TEMP    WIND        PRES    WAVE
                       AIR SEA DIR/SP/G            HT/PER
                 (UTC) (F)     (DEG/KT/KT) (MB)    (FT/S)
DEVILS ISLAND    0300   29     240/ 25/ 31 1020.1F
PORT WING        0300   27     220/  7/ 16   N/A
SAXON HARBOR     0340   26                 1020.0R
$$

LMZ867-665-643>646-060500-
LAKE MICHIGAN

STATION/POSITION TIME  TEMP    WIND        PRES    WAVE
                       AIR SEA DIR/SP/G            HT/PER
                 (UTC) (F)     (DEG/KT/KT) (MB)    (FT/S)
CHAMBERS ISLAND  0300   22     180/  4/ 10 1023.7F
ALGOMA LAKESHORE 0241          250/  5/  7   N/A
KEWAUNEE LAKESHO 0300   24     260/  7/ 11 1023.8F
SHEBOYGAN LAKESH 0300   26     230/  7/  8 1026.8F
PORT WASHINGTON  0300   27     240/  3/  5 1026.8F
MILWAUKEE LAKESH 0310   30     240/  8/ 10   N/A
KENOSHA   LAKESH 0300   29     250/  5/  9 1026.8S
$$

TC  - TEMPERATURE IN CELSIUS
VSB - VISIBILITY IN STATUTE MILES
WCI - WIND CHILL INDEX
HX  - HEAT INDEX




USA.gov is the U.S. government's official web portal to all federal, state and local government web resources and services.